SCP
-0 -0 -0 -0 -0 -0 -0 0 0 0 0 0 -0 0 0 0 0 -0 -0 -0 -0 -0 0 -0 0 0 0 0 0 0 -0 -1 -0 0 -0 0 0 0 0 0 0 0 -0 0 0 0 0
-0 -0 -0 -0 -0 -0 -0 0 0 0 0 0 -0 -0 -0 -0 0 0 0 -0 0 -0 -0 0 0 0 0 0 0 0 -0 -0 0 0 0 0 -0 0 0 0 0 0 0 0 0 0 0
-0 -0 -0 -0 -0 -0 -0 0 0 0 0 -0 -0 -0 -0 -0 0 0 0 0 -0 -0 -0 0 0 0 0 -0 0 0 0 0 0 0 0 0 0 0 0 0 0 0 0 0 0 0 0
-0 -0 -0 -0 -0 -0 -0 -0 0 0 -0 -0 -0 -0 -0 -0 0 0 0 0 0 -0 -0 0 0 0 0 0 0 0 0 0 0 0 0 0 -0 0 0 0 0 0 0 0 0 0 0
-0 -0 -0 -0 -0 -0 -0 -0 -0 -0 -0 -0 -0 -0 -0 -0 0 0 0 -0 0 0 0 0 0 0 0 0 0 -0 0 0 0 0 0 0 -0 0 0 0 0 0 0 0 0 0 0
-0 -0 -0 -0 -0 -0 -0 -0 -0 -0 -0 -0 -0 -0 -0 -0 -0 -0 -0 0 0 0 0 0 0 0 0 0 0 -0 -0 0 0 0 0 0 0 0 0 0 0 0 0 0 0 0 0
-0 -0 -0 -0 -0 -0 -0 -0 -0 -0 -0 -0 -0 -0 -0 -0 -0 -0 0 0 0 0 0 0 0 0 0 0 0 -0 0 0 0 0 0 0 -0 0 -0 -0 0 0 -0 -0 0 0 0
-0 -0 -0 -0 -0 -0 -0 -0 -0 -0 -0 -0 -0 -0 -0 -0 -0 -0 0 0 0 0 0 0 0 0 0 0 0 0 -0 0 0 0 0 0 0 -0 0 -0 -0 -0 0 -0 -0 -0 0
-0 -0 -0 -0 -0 -0 -0 -0 -0 -0 -0 -0 -0 -0 -0 -0 -0 0 0 0 0 0 0 0 0 0 0 0 0 -0 -0 0 0 0 0 -0 -0 0 0 0 0 0 0 0 0 0 -0
-0 -0 -0 -0 -0 -0 -0 -0 -0 -0 -0 -0 -0 -0 -0 -0 0 0 0 0 0 0 -0 -0 0 0 0 0 0 0 0 -0 -0 -0 -0 -0 0 0 0 0 0 0 0 0 -0 0 0
0 0 -0 -0 -0 -0 -0 -0 -0 -0 -0 -0 -0 -0 -0 -0 0 0 0 0 0 0 -0 -0 0 0 0 0 0 0 0 0 0 0 0 -0 0 0 0 0 0 0 -0 -0 -0 -0 0
0 0 0 -0 -0 -0 -0 -0 -0 -0 -0 -0 -0 -0 -0 0 0 0 0 0 0 -0 -0 -0 -0 0 0 0 0 0 0 0 -0 0 0 0 0 -0 0 -0 0 0 -0 -0 -0 0 0
0 -0 -0 -0 -0 -0 -0 -0 -0 -0 -0 -0 -0 -0 -0 0 0 0 0 0 -0 -0 -0 -0 -0 0 0 0 0 -0 -0 0 0 -0 0 0 -0 -0 -0 0 0 0 0 -0 -0 -0 -0
0 -0 -0 -0 -0 -0 -0 -0 -0 -0 -0 -0 -0 -0 -0 0 0 0 0 0 -0 -0 0 -0 -0 -0 -0 0 -0 -0 -0 -0 0 0 0 0 0 0 -0 -0 0 0 0 -0 -0 0 -0
0 -0 -0 -0 -0 -0 -0 -0 -0 -0 -0 -0 -0 0 0 0 0 0 -0 -0 -0 0 0 0 -0 -0 -0 -0 -0 -0 0 0 -0 0 -0 0 -0 0 -0 0 0 0 0 0 0 -0 -0
0 -0 -0 -0 -0 -0 -0 -0 -0 -0 -0 -0 0 0 0 0 0 0 0 0 0 0 0 0 0 0 -0 -0 0 0 0 0 -0 0 0 0 0 0 -0 0 0 0 -0 0 0 0 0
0 -0 -0 -0 -0 -0 -0 -0 -0 -0 -0 -0 0 0 0 0 0 0 0 0 0 0 0 0 0 0 0 0 0 0 -0 0 0 0 0 0 0 -0 0 0 0 0 0 0 0 0 0
0 -0 -0 -0 -0 -0 -0 -0 -0 -0 -0 0 0 0 0 0 0 0 0 0 0 0 0 -0 0 0 0 0 0 0 0 0 0 0 0 0 0 0 0 0 0 0 0 0 0 0 0
0 -0 -0 -0 -0 -0 -0 -0 -0 -0 -0 0 0 0 0 0 0 0 0 0 0 0 0 0 0 0 0 0 0 0 0 0 0 0 0 0 0 0 0 0 0 0 0 0 0 0 0
0 -0 -0 -0 -0 -0 -0 -0 -0 -0 -0 -0 0 0 0 0 0 0 0 0 0 0 0 0 0 0 0 0 0 0 0 0 0 0 0 0 0 0 0 0 0 0 0 0 0 0 0
0 -0 -0 -0 -0 -0 -0 -0 -0 -0 -0 -0 0 0 0 0 0 0 0 0 0 0 0 0 0 0 0 0 0 0 0 0 0 0 0 0 0 0 0 0 -0 -0 -0 0 0 0 0
0 0 0 -0 -0 -0 -0 -0 -0 -0 -0 0 0 0 0 0 0 0 0 0 0 0 0 0 0 0 0 0 0 0 0 0 0 0 0 0 0 0 0 0 0 0 0 -0 -0 0 0
0 0 0 0 0 0 0 -0 -0 -0 0 0 0 0 0 0 0 0 0 0 0 0 0 0 0 0 0 0 0 0 0 0 0 0 0 0 0 0 0 0 0 0 0 0 0 0 0
0 0 0 0 0 0 0 0 0 0 0 0 0 0 0 0 0 0 0 0 0 0 0 0 0 0 0 0 0 0 0 0 0 0 0 0 0 0 0 0 0 0 0 0 0 0 0
0 0 0 0 0 0 0 0 0 0 0 0 0 0 0 0 0 0 0 0 0 0 0 0 0 0 0 0 0 0 0 0 0 0 0 0 0 0 0 0 0 0 0 0 0 0 0
0 0 0 0 0 0 0 0 0 0 0 0 0 0 0 0 0 0 0 0 0 0 0 0 0 0 0 0 0 0 0 0 0 0 0 0 0 0 0 0 0 0 0 0 0 0 0
0 0 0 0 0 0 0 0 0 0 0 0 0 0 0 0 0 0 0 0 0 0 0 0 0 0 0 0 0 0 0 0 0 0 0 0 0 0 0 0 0 0 0 0 0 0 0
0 0 0 0 0 0 0 0 0 0 0 0 0 0 0 0 0 0 0 0 0 0 0 0 0 0 0 0 0 0 0 0 0 0 0 0 0 0 0 0 0 0 0 0 0 0 0
0 0 0 0 0 0 0 0 0 0 0 0 0 0 0 0 0 0 0 0 0 0 0 0 0 0 0 0 0 0 0 0 0 0 0 0 0 0 0 0 0 0 0 0 0 0 0
Wind_Speed_500mb
44 45 46 48 50 51 53 53 52 53 49 41 30 22 19 16 15 13 11 7 3 3 5 8 12 16 14 12 11 20 28 28 30 37 37 19 8 6 9 3 16 4 5 4 2 12 12
45 47 48 50 51 53 55 56 56 55 52 45 30 21 16 14 14 13 11 7 4 2 3 7 10 16 15 7 9 20 24 26 28 36 40 32 6 8 4 3 3 23 22 10 18 20 5
46 47 49 51 52 55 56 58 58 59 57 51 32 21 14 12 13 14 12 8 4 2 3 7 10 15 17 17 10 25 18 12 17 13 28 33 19 11 15 7 20 14 12 15 13 7 4
47 48 50 51 53 55 57 58 59 60 59 52 33 19 10 10 11 14 15 11 6 2 2 5 7 12 11 16 15 30 27 25 27 31 37 13 20 32 18 15 4 2 4 10 13 3 3
48 48 50 52 53 55 57 58 59 59 59 54 33 16 7 6 9 12 14 13 10 6 3 5 7 7 5 15 20 28 26 14 20 35 39 29 23 10 11 1 8 7 6 7 15 9 4
48 49 51 53 54 55 57 58 58 58 57 54 32 13 4 4 7 12 17 17 8 4 5 4 2 1 8 10 22 27 25 22 14 17 27 22 9 7 5 6 9 9 7 11 12 11 7
51 52 53 54 55 56 57 58 58 57 55 51 30 10 1 4 8 13 22 8 10 3 9 12 5 8 6 2 17 21 31 38 18 7 9 13 6 13 23 18 10 6 11 15 8 5 3
52 53 54 55 56 57 58 58 57 55 53 48 29 8 3 6 10 16 17 8 13 14 13 11 24 25 20 10 6 13 26 27 18 12 5 4 14 23 9 13 12 10 4 10 3 6 2
53 54 55 56 57 58 59 58 56 54 52 46 28 9 3 6 10 11 12 16 30 19 3 8 6 8 7 16 11 24 35 29 11 14 12 12 17 7 8 9 8 7 9 9 7 4 3
53 55 56 56 57 59 59 58 57 54 50 44 28 9 3 5 7 12 3 27 31 3 9 8 6 5 14 9 3 18 34 20 2 16 11 12 10 6 9 11 12 5 15 9 18 10 5
52 54 55 57 59 59 60 58 57 54 48 42 26 9 8 15 9 10 12 29 23 1 9 1 5 3 9 10 7 12 33 27 14 8 9 15 4 10 8 10 9 15 12 16 9 9 7
52 54 56 58 59 60 62 61 57 55 49 41 27 11 11 16 19 17 16 29 7 11 5 6 6 9 9 1 2 8 11 9 1 5 4 15 9 7 13 4 10 11 11 15 11 6 7
51 53 56 59 62 63 65 65 61 58 51 41 27 12 10 14 8 12 19 15 10 10 11 7 5 5 5 6 3 4 9 4 5 6 10 14 8 6 8 3 5 14 12 5 8 4 10
51 54 57 60 63 66 68 70 65 61 54 43 25 10 9 13 17 16 13 9 13 4 10 9 6 4 7 13 3 4 6 3 5 10 1 4 15 9 9 6 7 7 10 10 3 3 4
51 54 57 61 64 67 70 73 72 63 58 45 20 9 6 4 5 7 4 9 10 10 8 10 12 9 9 8 6 5 6 10 9 14 13 4 9 11 3 7 4 3 9 7 13 6 5
54 55 57 60 63 66 69 73 75 66 62 48 16 0 7 7 7 5 9 8 7 11 5 3 2 1 5 5 5 7 9 6 5 14 7 7 4 3 11 6 11 3 10 9 8 2 2
57 57 58 60 62 65 67 70 74 71 64 48 12 8 17 18 7 1 5 10 11 16 16 10 7 1 2 4 6 3 10 5 8 7 7 7 6 12 5 10 6 9 6 13 10 7 8
57 58 59 60 61 62 63 65 68 71 67 50 14 6 14 11 3 4 3 6 10 9 5 6 5 5 3 2 5 4 3 4 1 13 8 3 8 1 3 4 5 5 6 8 9 5 4
58 58 59 60 61 61 60 60 60 62 65 57 21 7 11 7 5 5 11 8 6 12 8 7 3 1 2 5 4 1 3 8 8 5 8 9 6 6 14 13 10 12 6 9 9 6 6
58 59 59 58 59 60 58 56 55 52 52 43 15 7 10 14 13 5 9 8 13 17 4 12 5 4 6 9 9 2 1 5 5 10 14 10 6 12 11 12 7 3 5 6 8 6 7
56 57 56 56 55 55 55 53 50 46 42 31 18 4 6 6 8 7 4 8 8 13 11 17 4 10 2 8 1 1 3 3 7 4 7 8 7 8 9 7 5 6 9 8 11 10 12
51 51 52 52 50 50 50 50 48 43 36 18 12 10 11 4 11 6 5 3 7 11 4 12 9 16 5 8 13 17 8 2 5 6 6 5 5 7 4 3 4 8 14 15 12 7 5
45 47 48 48 47 46 45 46 47 40 34 14 15 11 8 7 8 2 3 4 3 11 8 3 13 8 5 10 21 8 8 4 4 8 6 6 11 7 9 6 9 8 11 9 8 7 13
43 44 44 45 45 44 43 40 39 39 32 21 17 12 6 7 2 5 1 6 7 7 8 25 29 4 7 37 8 5 2 7 7 13 11 13 11 6 9 4 6 15 12 7 11 7 6
41 42 41 40 41 42 41 39 35 32 28 19 12 7 5 6 6 15 6 6 14 19 10 13 22 11 36 15 6 7 9 11 5 6 2 7 10 6 8 10 8 4 8 13 10 4 0
38 37 36 37 37 38 40 37 34 30 27 16 10 8 3 3 8 10 6 6 5 5 12 11 16 26 8 6 6 12 11 11 7 5 10 11 10 8 6 9 13 17 11 24 17 1 19
36 35 34 35 36 37 39 39 36 30 25 21 9 12 8 8 16 16 9 6 3 1 3 11 20 17 10 4 6 9 11 11 10 12 8 3 5 12 6 9 13 13 11 24 10 16 54
33 33 34 33 35 35 36 37 36 35 28 20 12 14 12 12 39 39 27 13 9 8 2 17 18 5 7 1 6 8 9 13 8 11 14 13 10 7 5 4 11 21 14 14 16 17 69
33 33 33 34 34 34 34 34 33 34 36 28 10 19 23 22 26 34 36 34 31 37 21 10 5 5 7 2 1 2 5 1 7 10 3 3 14 9 16 12 7 11 12 32 30 53 62
Wind_Direction_500mb
24 21 18 16 14 11 10 8 6 5 0 356 351 349 353 360 6 7 3 348 322 247 225 223 221 214 210 215 237 153 161 177 171 196 214 195 231 325 329 319 312 210 77 141 259 21 79
21 18 16 14 11 10 9 8 5 3 2 357 353 353 356 358 2 2 0 350 342 260 208 206 216 210 204 225 216 177 175 183 187 196 217 219 11 230 318 320 230 312 322 330 300 307 258
17 15 13 11 10 9 8 7 4 2 2 359 357 355 359 5 15 18 15 357 338 284 183 198 208 206 216 211 194 191 201 208 213 218 220 226 229 348 343 320 246 295 333 344 282 248 270
15 11 11 9 8 7 7 5 3 2 1 1 360 4 12 23 30 32 33 29 29 41 169 207 188 195 238 225 187 181 190 198 214 218 223 245 303 275 287 297 350 246 346 337 284 23 200
11 9 8 6 5 5 5 3 2 2 1 2 1 12 35 30 20 20 16 10 25 48 90 153 159 192 250 203 189 188 195 185 206 216 229 246 307 249 272 244 357 349 293 248 300 239 47
8 6 6 4 3 2 2 1 1 0 0 1 2 17 39 359 356 7 7 353 349 19 106 111 159 263 210 219 218 203 189 202 205 226 252 257 266 288 33 114 235 214 205 264 255 282 175
6 5 3 2 1 360 360 359 360 359 0 0 3 15 349 296 328 355 356 5 3 328 258 243 250 281 260 133 197 219 211 204 171 156 169 188 131 223 238 209 237 211 213 237 238 327 29
3 2 1 359 359 358 358 357 358 358 359 359 2 5 237 263 317 346 15 53 38 320 312 285 251 253 238 218 163 176 190 178 162 204 218 356 239 243 206 241 234 224 195 250 338 103 204
1 0 360 359 358 357 357 356 356 358 357 358 2 358 277 270 314 335 5 17 348 332 196 294 291 264 208 197 195 188 178 186 167 182 194 180 243 315 312 281 173 215 170 208 207 73 14
0 360 360 358 358 357 356 355 355 356 355 355 356 353 267 255 297 321 3 354 347 319 64 287 275 221 192 172 220 183 187 179 196 211 192 236 274 233 288 258 136 296 190 160 141 122 212
0 1 0 359 359 358 356 354 355 354 353 353 345 322 251 244 275 314 328 345 342 83 66 233 210 159 182 177 140 182 187 190 192 194 116 256 244 234 247 233 158 228 122 152 158 90 88
3 3 2 1 0 358 356 354 355 355 351 351 334 311 260 257 277 298 292 327 320 42 33 332 180 167 120 262 357 120 175 193 80 165 316 251 256 238 209 273 196 116 83 48 54 64 0
4 4 3 2 1 360 358 355 356 356 350 349 329 297 264 265 286 301 310 323 35 88 353 305 240 144 142 196 281 142 160 160 168 13 0 333 281 277 210 271 358 64 63 4 37 37 219
1 0 360 360 360 359 358 356 355 357 350 348 331 275 264 278 281 288 325 48 60 339 267 307 351 98 176 153 216 129 74 270 184 104 335 32 350 11 346 226 189 61 137 144 184 162 272
355 355 355 355 356 356 357 355 354 358 353 347 338 266 282 248 261 250 1 56 198 200 253 319 336 46 329 333 133 136 172 206 218 168 170 124 283 311 239 330 54 153 43 166 104 20 75
347 347 348 349 351 353 354 354 353 356 357 349 351 143 38 186 156 140 77 224 234 218 208 187 117 339 26 358 102 126 193 198 225 186 188 184 340 325 296 45 31 115 151 40 14 104 79
343 342 341 341 343 345 349 352 352 353 358 356 6 105 29 148 153 355 138 236 268 269 225 165 169 197 347 56 95 159 189 233 202 102 105 116 143 290 13 27 323 16 42 52 109 100 146
338 338 340 338 339 341 344 348 351 353 357 7 9 66 55 165 56 46 171 206 312 304 346 275 112 128 175 116 81 159 141 243 95 145 144 182 130 196 212 358 291 4 109 107 112 223 83
335 335 335 336 338 339 340 346 350 354 358 360 354 0 3 145 107 334 317 308 276 334 329 351 296 336 114 66 89 40 38 13 3 101 150 184 34 18 353 0 355 48 16 110 104 85 185
334 334 333 335 337 339 338 342 348 352 356 357 357 13 26 72 55 87 9 344 324 338 281 357 297 114 96 41 33 224 342 355 33 93 110 98 109 148 176 203 182 30 9 91 106 106 180
333 334 335 336 338 340 342 341 346 351 355 2 12 45 28 336 355 13 357 352 330 347 353 1 27 29 179 139 58 291 292 329 59 89 69 104 150 176 232 222 189 216 226 193 199 194 160
335 337 339 339 342 344 345 343 344 350 358 10 22 10 353 304 311 326 354 11 4 321 292 336 39 320 356 165 182 205 169 223 196 10 76 20 187 166 270 178 218 261 253 236 226 129 263
335 336 337 339 340 342 344 348 349 352 4 23 20 360 341 332 342 31 224 324 330 356 280 294 340 330 32 4 311 284 197 180 188 174 157 131 134 107 248 353 5 334 246 219 197 173 155
334 336 337 338 339 341 344 345 351 356 360 5 357 355 349 283 296 233 244 316 286 316 269 301 325 310 331 332 277 256 274 307 248 249 176 149 133 134 200 57 249 244 286 204 116 20 147
333 335 338 341 345 346 347 345 346 349 352 347 343 351 334 283 274 294 269 260 308 303 251 260 288 301 314 316 54 24 338 357 271 19 243 156 125 154 158 185 275 22 200 166 146 352 37
336 338 341 344 347 352 354 353 351 351 349 344 301 317 277 329 255 270 316 299 283 289 320 278 304 318 306 98 112 173 212 218 274 331 61 78 79 125 135 166 202 231 208 161 119 301 218
342 346 344 346 348 352 354 354 352 352 355 353 321 306 283 269 270 273 230 256 271 83 256 300 339 333 1 110 160 170 222 192 188 185 194 37 40 173 175 223 282 246 164 143 110 233 180
338 340 342 343 346 348 352 355 358 354 354 356 331 303 300 262 269 267 258 252 260 270 130 312 334 322 345 23 162 212 190 217 156 196 176 174 164 199 116 138 265 165 118 159 204 163 178
335 336 338 339 340 343 344 346 349 351 351 357 342 317 305 272 265 277 274 257 268 274 252 228 262 315 255 67 324 293 264 202 178 214 47 211 187 187 175 213 235 238 260 223 177 166 175
Wind_Speed_850mb
44 45 46 48 50 51 53 53 52 53 49 41 30 22 19 16 15 13 11 7 3 3 5 8 12 16 14 12 11 20 28 28 30 37 37 19 8 6 9 3 16 4 5 4 2 12 12
45 47 48 50 51 53 55 56 56 55 52 45 30 21 16 14 14 13 11 7 4 2 3 7 10 16 15 7 9 20 24 26 28 36 40 32 6 8 4 3 3 23 22 10 18 20 5
46 47 49 51 52 55 56 58 58 59 57 51 32 21 14 12 13 14 12 8 4 2 3 7 10 15 17 17 10 25 18 12 17 13 28 33 19 11 15 7 20 14 12 15 13 7 4
47 48 50 51 53 55 57 58 59 60 59 52 33 19 10 10 11 14 15 11 6 2 2 5 7 12 11 16 15 30 27 25 27 31 37 13 20 32 18 15 4 2 4 10 13 3 3
48 48 50 52 53 55 57 58 59 59 59 54 33 16 7 6 9 12 14 13 10 6 3 5 7 7 5 15 20 28 26 14 20 35 39 29 23 10 11 1 8 7 6 7 15 9 4
48 49 51 53 54 55 57 58 58 58 57 54 32 13 4 4 7 12 17 17 8 4 5 4 2 1 8 10 22 27 25 22 14 17 27 22 9 7 5 6 9 9 7 11 12 11 7
51 52 53 54 55 56 57 58 58 57 55 51 30 10 1 4 8 13 22 8 10 3 9 12 5 8 6 2 17 21 31 38 18 7 9 13 6 13 23 18 10 6 11 15 8 5 3
52 53 54 55 56 57 58 58 57 55 53 48 29 8 3 6 10 16 17 8 13 14 13 11 24 25 20 10 6 13 26 27 18 12 5 4 14 23 9 13 12 10 4 10 3 6 2
53 54 55 56 57 58 59 58 56 54 52 46 28 9 3 6 10 11 12 16 30 19 3 8 6 8 7 16 11 24 35 29 11 14 12 12 17 7 8 9 8 7 9 9 7 4 3
53 55 56 56 57 59 59 58 57 54 50 44 28 9 3 5 7 12 3 27 31 3 9 8 6 5 14 9 3 18 34 20 2 16 11 12 10 6 9 11 12 5 15 9 18 10 5
52 54 55 57 59 59 60 58 57 54 48 42 26 9 8 15 9 10 12 29 23 1 9 1 5 3 9 10 7 12 33 27 14 8 9 15 4 10 8 10 9 15 12 16 9 9 7
52 54 56 58 59 60 62 61 57 55 49 41 27 11 11 16 19 17 16 29 7 11 5 6 6 9 9 1 2 8 11 9 1 5 4 15 9 7 13 4 10 11 11 15 11 6 7
51 53 56 59 62 63 65 65 61 58 51 41 27 12 10 14 8 12 19 15 10 10 11 7 5 5 5 6 3 4 9 4 5 6 10 14 8 6 8 3 5 14 12 5 8 4 10
51 54 57 60 63 66 68 70 65 61 54 43 25 10 9 13 17 16 13 9 13 4 10 9 6 4 7 13 3 4 6 3 5 10 1 4 15 9 9 6 7 7 10 10 3 3 4
51 54 57 61 64 67 70 73 72 63 58 45 20 9 6 4 5 7 4 9 10 10 8 10 12 9 9 8 6 5 6 10 9 14 13 4 9 11 3 7 4 3 9 7 13 6 5
54 55 57 60 63 66 69 73 75 66 62 48 16 0 7 7 7 5 9 8 7 11 5 3 2 1 5 5 5 7 9 6 5 14 7 7 4 3 11 6 11 3 10 9 8 2 2
57 57 58 60 62 65 67 70 74 71 64 48 12 8 17 18 7 1 5 10 11 16 16 10 7 1 2 4 6 3 10 5 8 7 7 7 6 12 5 10 6 9 6 13 10 7 8
57 58 59 60 61 62 63 65 68 71 67 50 14 6 14 11 3 4 3 6 10 9 5 6 5 5 3 2 5 4 3 4 1 13 8 3 8 1 3 4 5 5 6 8 9 5 4
58 58 59 60 61 61 60 60 60 62 65 57 21 7 11 7 5 5 11 8 6 12 8 7 3 1 2 5 4 1 3 8 8 5 8 9 6 6 14 13 10 12 6 9 9 6 6
58 59 59 58 59 60 58 56 55 52 52 43 15 7 10 14 13 5 9 8 13 17 4 12 5 4 6 9 9 2 1 5 5 10 14 10 6 12 11 12 7 3 5 6 8 6 7
56 57 56 56 55 55 55 53 50 46 42 31 18 4 6 6 8 7 4 8 8 13 11 17 4 10 2 8 1 1 3 3 7 4 7 8 7 8 9 7 5 6 9 8 11 10 12
51 51 52 52 50 50 50 50 48 43 36 18 12 10 11 4 11 6 5 3 7 11 4 12 9 16 5 8 13 17 8 2 5 6 6 5 5 7 4 3 4 8 14 15 12 7 5
45 47 48 48 47 46 45 46 47 40 34 14 15 11 8 7 8 2 3 4 3 11 8 3 13 8 5 10 21 8 8 4 4 8 6 6 11 7 9 6 9 8 11 9 8 7 13
43 44 44 45 45 44 43 40 39 39 32 21 17 12 6 7 2 5 1 6 7 7 8 25 29 4 7 37 8 5 2 7 7 13 11 13 11 6 9 4 6 15 12 7 11 7 6
41 42 41 40 41 42 41 39 35 32 28 19 12 7 5 6 6 15 6 6 14 19 10 13 22 11 36 15 6 7 9 11 5 6 2 7 10 6 8 10 8 4 8 13 10 4 0
38 37 36 37 37 38 40 37 34 30 27 16 10 8 3 3 8 10 6 6 5 5 12 11 16 26 8 6 6 12 11 11 7 5 10 11 10 8 6 9 13 17 11 24 17 1 19
36 35 34 35 36 37 39 39 36 30 25 21 9 12 8 8 16 16 9 6 3 1 3 11 20 17 10 4 6 9 11 11 10 12 8 3 5 12 6 9 13 13 11 24 10 16 54
33 33 34 33 35 35 36 37 36 35 28 20 12 14 12 12 39 39 27 13 9 8 2 17 18 5 7 1 6 8 9 13 8 11 14 13 10 7 5 4 11 21 14 14 16 17 69
33 33 33 34 34 34 34 34 33 34 36 28 10 19 23 22 26 34 36 34 31 37 21 10 5 5 7 2 1 2 5 1 7 10 3 3 14 9 16 12 7 11 12 32 30 53 62
Wind_Direction_850mb
24 21 18 16 14 11 10 8 6 5 0 356 351 349 353 360 6 7 3 348 322 247 225 223 221 214 210 215 237 153 161 177 171 196 214 195 231 325 329 319 312 210 77 141 259 21 79
21 18 16 14 11 10 9 8 5 3 2 357 353 353 356 358 2 2 0 350 342 260 208 206 216 210 204 225 216 177 175 183 187 196 217 219 11 230 318 320 230 312 322 330 300 307 258
17 15 13 11 10 9 8 7 4 2 2 359 357 355 359 5 15 18 15 357 338 284 183 198 208 206 216 211 194 191 201 208 213 218 220 226 229 348 343 320 246 295 333 344 282 248 270
15 11 11 9 8 7 7 5 3 2 1 1 360 4 12 23 30 32 33 29 29 41 169 207 188 195 238 225 187 181 190 198 214 218 223 245 303 275 287 297 350 246 346 337 284 23 200
11 9 8 6 5 5 5 3 2 2 1 2 1 12 35 30 20 20 16 10 25 48 90 153 159 192 250 203 189 188 195 185 206 216 229 246 307 249 272 244 357 349 293 248 300 239 47
8 6 6 4 3 2 2 1 1 0 0 1 2 17 39 359 356 7 7 353 349 19 106 111 159 263 210 219 218 203 189 202 205 226 252 257 266 288 33 114 235 214 205 264 255 282 175
6 5 3 2 1 360 360 359 360 359 0 0 3 15 349 296 328 355 356 5 3 328 258 243 250 281 260 133 197 219 211 204 171 156 169 188 131 223 238 209 237 211 213 237 238 327 29
3 2 1 359 359 358 358 357 358 358 359 359 2 5 237 263 317 346 15 53 38 320 312 285 251 253 238 218 163 176 190 178 162 204 218 356 239 243 206 241 234 224 195 250 338 103 204
1 0 360 359 358 357 357 356 356 358 357 358 2 358 277 270 314 335 5 17 348 332 196 294 291 264 208 197 195 188 178 186 167 182 194 180 243 315 312 281 173 215 170 208 207 73 14
0 360 360 358 358 357 356 355 355 356 355 355 356 353 267 255 297 321 3 354 347 319 64 287 275 221 192 172 220 183 187 179 196 211 192 236 274 233 288 258 136 296 190 160 141 122 212
0 1 0 359 359 358 356 354 355 354 353 353 345 322 251 244 275 314 328 345 342 83 66 233 210 159 182 177 140 182 187 190 192 194 116 256 244 234 247 233 158 228 122 152 158 90 88
3 3 2 1 0 358 356 354 355 355 351 351 334 311 260 257 277 298 292 327 320 42 33 332 180 167 120 262 357 120 175 193 80 165 316 251 256 238 209 273 196 116 83 48 54 64 0
4 4 3 2 1 360 358 355 356 356 350 349 329 297 264 265 286 301 310 323 35 88 353 305 240 144 142 196 281 142 160 160 168 13 0 333 281 277 210 271 358 64 63 4 37 37 219
1 0 360 360 360 359 358 356 355 357 350 348 331 275 264 278 281 288 325 48 60 339 267 307 351 98 176 153 216 129 74 270 184 104 335 32 350 11 346 226 189 61 137 144 184 162 272
355 355 355 355 356 356 357 355 354 358 353 347 338 266 282 248 261 250 1 56 198 200 253 319 336 46 329 333 133 136 172 206 218 168 170 124 283 311 239 330 54 153 43 166 104 20 75
347 347 348 349 351 353 354 354 353 356 357 349 351 143 38 186 156 140 77 224 234 218 208 187 117 339 26 358 102 126 193 198 225 186 188 184 340 325 296 45 31 115 151 40 14 104 79
343 342 341 341 343 345 349 352 352 353 358 356 6 105 29 148 153 355 138 236 268 269 225 165 169 197 347 56 95 159 189 233 202 102 105 116 143 290 13 27 323 16 42 52 109 100 146
338 338 340 338 339 341 344 348 351 353 357 7 9 66 55 165 56 46 171 206 312 304 346 275 112 128 175 116 81 159 141 243 95 145 144 182 130 196 212 358 291 4 109 107 112 223 83
335 335 335 336 338 339 340 346 350 354 358 360 354 0 3 145 107 334 317 308 276 334 329 351 296 336 114 66 89 40 38 13 3 101 150 184 34 18 353 0 355 48 16 110 104 85 185
334 334 333 335 337 339 338 342 348 352 356 357 357 13 26 72 55 87 9 344 324 338 281 357 297 114 96 41 33 224 342 355 33 93 110 98 109 148 176 203 182 30 9 91 106 106 180
333 334 335 336 338 340 342 341 346 351 355 2 12 45 28 336 355 13 357 352 330 347 353 1 27 29 179 139 58 291 292 329 59 89 69 104 150 176 232 222 189 216 226 193 199 194 160
335 337 339 339 342 344 345 343 344 350 358 10 22 10 353 304 311 326 354 11 4 321 292 336 39 320 356 165 182 205 169 223 196 10 76 20 187 166 270 178 218 261 253 236 226 129 263
335 336 337 339 340 342 344 348 349 352 4 23 20 360 341 332 342 31 224 324 330 356 280 294 340 330 32 4 311 284 197 180 188 174 157 131 134 107 248 353 5 334 246 219 197 173 155
334 336 337 338 339 341 344 345 351 356 360 5 357 355 349 283 296 233 244 316 286 316 269 301 325 310 331 332 277 256 274 307 248 249 176 149 133 134 200 57 249 244 286 204 116 20 147
333 335 338 341 345 346 347 345 346 349 352 347 343 351 334 283 274 294 269 260 308 303 251 260 288 301 314 316 54 24 338 357 271 19 243 156 125 154 158 185 275 22 200 166 146 352 37
336 338 341 344 347 352 354 353 351 351 349 344 301 317 277 329 255 270 316 299 283 289 320 278 304 318 306 98 112 173 212 218 274 331 61 78 79 125 135 166 202 231 208 161 119 301 218
342 346 344 346 348 352 354 354 352 352 355 353 321 306 283 269 270 273 230 256 271 83 256 300 339 333 1 110 160 170 222 192 188 185 194 37 40 173 175 223 282 246 164 143 110 233 180
338 340 342 343 346 348 352 355 358 354 354 356 331 303 300 262 269 267 258 252 260 270 130 312 334 322 345 23 162 212 190 217 156 196 176 174 164 199 116 138 265 165 118 159 204 163 178
335 336 338 339 340 343 344 346 349 351 351 357 342 317 305 272 265 277 274 257 268 274 252 228 262 315 255 67 324 293 264 202 178 214 47 211 187 187 175 213 235 238 260 223 177 166 175